Theta_e
331 330 329 328 329 330 331 329 327 326 326 326 327 327 327 328 329 329 328 337 340 341 341 342 343 343 342 346 349 349 348 347 347 346 345 345 344 344 344 344 343 342 343
331 330 329 328 327 327 328 327 326 325 325 325 325 326 326 325 327 328 328 328 338 342 344 345 344 341 341 343 347 348 349 347 347 346 345 344 344 345 344 343 342 342 342
331 330 329 326 327 327 326 325 325 324 323 324 324 325 325 325 326 326 327 328 331 339 342 343 345 341 340 341 341 347 347 347 346 346 345 343 343 344 343 342 342 342 341
332 329 331 328 328 326 325 324 323 322 322 321 321 322 323 323 325 325 325 328 328 332 338 341 343 342 341 342 340 344 347 346 344 343 344 344 343 343 342 342 342 342 341
333 332 330 328 327 325 324 324 322 322 320 321 322 322 322 322 322 325 325 326 327 331 331 339 341 341 342 342 342 343 346 345 343 344 345 345 343 342 342 342 342 342 341
334 331 329 328 327 325 324 323 322 321 321 321 323 324 322 321 321 321 323 326 325 328 329 328 330 333 341 342 342 342 344 346 344 345 345 344 343 341 342 342 341 340 337
334 331 328 327 325 325 325 322 321 321 320 322 318 320 320 322 320 320 322 322 324 326 327 327 327 329 332 343 342 343 343 346 346 345 344 342 342 342 341 341 339 336 334
332 329 327 326 325 323 323 321 324 318 320 322 316 316 312 316 318 320 320 322 322 324 325 327 326 328 328 332 336 343 343 345 346 345 340 339 341 342 341 339 336 335 335
331 329 328 326 324 322 322 320 318 319 315 320 318 314 308 308 312 318 318 320 321 320 321 323 326 328 328 328 335 341 343 342 344 344 341 339 341 341 340 337 337 335 333
330 329 331 328 326 324 321 320 321 317 316 314 315 318 314 313 312 309 314 316 319 320 320 321 324 326 328 327 333 338 340 340 343 343 342 341 341 340 338 336 335 335 333
328 329 329 328 325 321 321 321 321 318 317 316 314 313 313 313 314 311 307 311 315 317 318 320 322 324 326 326 328 333 336 336 337 339 339 340 341 340 337 336 334 333 331
324 327 326 324 323 322 321 321 321 320 318 317 315 314 313 312 311 312 310 308 310 318 323 325 320 321 325 326 331 333 333 331 330 332 334 336 337 338 336 334 333 332 331
321 323 323 321 321 322 322 321 321 321 320 317 317 315 315 314 313 313 314 313 310 318 317 324 326 324 324 324 328 334 334 328 327 327 328 332 333 333 334 332 332 331 329
321 322 322 321 322 323 323 323 323 323 321 320 318 318 316 316 315 313 311 313 309 316 318 317 326 327 329 328 329 333 330 326 325 324 325 326 328 328 328 329 329 328 330
322 322 323 323 323 325 324 324 324 325 324 321 320 319 318 318 317 316 315 320 313 308 312 315 320 327 329 329 333 331 330 326 325 323 322 322 323 324 324 324 326 326 327
322 322 322 322 323 324 324 323 324 324 322 319 319 321 318 320 318 318 316 316 316 313 310 316 321 326 328 330 333 329 327 325 323 322 321 320 320 320 320 319 322 324 324
323 322 324 324 324 323 323 323 323 323 321 320 317 319 319 318 317 319 317 316 313 313 313 318 322 326 326 326 326 326 326 324 322 321 320 319 317 318 316 316 318 319 321
322 323 324 325 325 323 322 322 323 323 321 321 318 318 319 322 321 321 318 316 313 314 317 316 319 320 323 323 324 322 322 322 320 319 318 317 316 314 314 313 313 314 314
320 321 324 324 324 322 323 326 324 324 322 321 321 318 322 321 320 319 320 318 317 318 319 317 317 320 319 321 319 319 318 318 320 320 317 316 314 313 312 311 311 310 309
321 323 323 324 324 323 323 324 326 325 323 322 323 322 323 323 321 321 320 320 320 319 319 318 317 317 317 319 318 315 314 316 312 314 313 313 312 313 311 310 311 310 307
325 326 323 323 321 319 315 317 325 321 320 321 322 324 323 322 320 320 321 321 320 318 318 317 315 315 315 315 313 314 311 311 310 312 309 308 308 308 308 311 312 309 305
326 326 321 320 317 317 303 308 317 320 323 323 321 321 321 318 315 312 313 314 318 319 318 316 315 314 314 314 314 313 311 309 305 310 305 302 303 300 301 302 305 303 303
324 322 317 317 315 312 300 304 309 320 324 323 322 320 319 318 317 315 310 310 310 310 315 319 315 315 314 315 314 312 311 309 307 306 305 298 299 295 298 300 301 301 300
322 317 315 314 314 311 301 302 308 324 323 323 322 321 320 319 318 319 318 317 317 318 319 320 318 318 317 317 316 315 312 306 307 305 303 296 295 293 294 294 300 299 298
317 315 315 313 313 315 301 302 314 322 322 322 322 322 321 319 303 306 318 315 313 312 307 305 305 303 301 304 310 312 309 308 304 303 302 297 295 292 292 292 293 299 297
318 318 315 313 310 316 300 301 314 323 321 321 320 318 307 312 301 305 318 316 313 314 315 315 313 309 310 307 307 313 311 307 302 301 305 297 294 293 292 293 292 293 293
Wind_Speed
8 6 5 4 5 4 4 4 5 4 5 5 5 5 5 6 5 3 3 13 13 13 13 14 15 13 13 11 12 15 16 17 17 15 15 14 13 13 12 11 12 12 15
6 7 6 6 4 4 4 4 5 5 5 4 6 6 6 5 5 5 4 5 14 13 13 14 16 13 13 12 13 16 15 16 17 17 16 15 14 12 12 11 11 12 13
9 10 6 5 6 4 5 4 4 3 4 3 6 5 4 5 5 5 5 4 5 11 12 14 13 13 14 14 14 16 15 15 18 17 16 15 14 11 11 12 13 12 12
11 7 5 5 4 4 4 4 3 3 4 4 4 5 4 4 5 6 4 4 4 3 8 14 13 12 12 12 14 15 16 15 14 15 15 15 14 12 10 9 11 12 17
10 9 7 5 5 4 3 3 4 4 3 4 5 4 4 4 4 3 5 5 5 4 3 10 13 13 13 12 13 16 16 16 13 17 16 16 14 13 9 9 12 17 19
9 6 5 5 5 4 4 4 5 3 4 5 4 5 4 4 3 4 5 3 5 5 4 4 3 5 10 12 13 13 15 15 13 16 17 16 14 11 11 13 16 19 19
10 9 5 5 5 5 5 3 1 4 3 3 2 1 2 4 4 4 3 3 4 4 4 4 4 3 4 11 11 11 14 15 13 14 17 15 15 14 16 18 20 17 14
10 8 7 5 6 4 4 3 4 2 3 4 3 1 2 2 3 4 3 4 5 3 4 5 5 5 4 3 6 10 12 15 15 16 14 15 16 17 19 21 21 21 19
6 6 6 5 5 4 4 4 4 6 3 3 4 4 2 3 2 1 3 3 3 3 3 4 5 5 5 5 7 9 11 7 15 18 17 17 19 20 19 21 21 20 20
6 6 5 5 5 4 5 4 4 4 4 4 1 3 1 2 3 2 2 1 4 3 4 3 4 5 5 4 9 10 10 9 13 16 18 22 22 22 24 21 20 20 19
6 6 6 6 5 4 4 5 4 4 3 3 3 2 2 1 1 2 1 2 2 1 2 3 3 4 5 4 4 5 11 11 11 14 19 22 24 25 25 23 21 21 19
3 5 5 5 5 4 5 4 4 5 5 3 3 3 3 4 3 3 1 0 1 1 2 2 1 2 3 4 7 9 11 10 11 14 17 23 23 24 24 23 22 21 19
2 4 5 5 4 4 4 4 4 5 5 4 5 4 3 3 3 2 3 2 2 1 1 3 1 1 2 2 4 9 13 13 14 14 15 19 21 22 23 21 20 19 17
4 4 4 4 4 4 5 3 3 3 5 5 6 5 4 4 4 3 4 5 2 2 3 1 2 2 2 2 4 12 9 17 17 16 18 20 20 20 21 18 18 16 13
3 5 5 4 3 4 3 3 5 5 5 4 5 5 4 4 4 4 3 3 5 4 2 1 1 2 3 3 6 7 9 19 21 20 21 22 22 20 16 14 14 13 11
5 5 3 2 1 0 2 5 3 4 5 3 2 4 4 3 4 4 4 3 2 4 4 1 1 1 4 4 10 10 13 21 24 24 24 22 19 17 17 15 12 9 9
5 4 4 3 2 1 1 3 4 4 5 4 1 3 4 4 3 3 3 3 3 3 5 2 1 3 5 9 9 11 12 13 14 25 25 21 19 16 18 15 10 10 11
4 4 4 3 2 2 3 3 5 4 4 4 4 4 3 3 3 4 4 5 4 3 7 8 2 4 5 10 11 13 10 11 13 23 22 20 15 13 14 12 12 13 10
4 3 4 4 2 3 5 3 3 5 5 2 2 4 4 5 4 3 4 7 6 5 7 7 5 5 5 10 13 13 12 14 11 20 17 13 13 14 12 12 11 10 12
5 4 4 4 2 3 4 4 2 2 5 4 1 3 4 5 5 6 6 7 8 9 9 10 9 9 9 9 13 13 11 11 9 8 14 12 11 11 11 12 12 12 12
4 6 5 5 4 3 4 5 4 5 5 4 2 3 5 7 8 6 5 8 10 8 10 10 9 9 9 10 14 10 13 10 7 5 6 5 5 5 6 8 10 12 12
6 6 5 5 4 3 7 2 6 4 4 4 4 5 4 9 8 10 11 9 8 13 12 8 9 11 10 11 12 12 14 10 5 2 4 4 3 5 4 4 8 10 11
6 6 5 5 4 4 8 8 7 4 5 5 6 6 6 6 10 10 14 13 10 11 10 14 14 11 13 14 13 13 12 7 4 3 6 3 3 4 3 4 7 9 10
6 6 5 5 4 3 5 7 8 5 6 7 7 7 8 9 10 13 12 12 10 10 11 9 12 13 13 12 12 11 13 9 8 4 3 4 1 2 1 2 4 6 8
4 4 4 5 5 3 4 8 8 5 6 7 8 6 8 9 10 14 13 14 15 12 16 17 16 17 14 14 12 11 9 12 5 1 1 4 2 2 0 2 3 6 7
5 4 5 3 4 4 4 7 8 4 5 6 7 7 11 9 12 11 13 13 13 12 14 15 12 13 12 10 9 6 11 10 5 2 4 5 3 4 2 2 2 2 2
Wind_Direction
182 186 209 197 209 190 194 191 196 205 228 231 230 224 247 248 225 222 244 251 242 242 254 241 217 221 224 219 205 200 188 180 178 176 172 173 174 182 183 178 166 169 156
171 196 210 207 207 194 199 191 194 202 219 213 239 224 237 251 253 224 234 250 253 238 248 216 210 211 225 222 212 206 203 190 187 184 177 177 180 179 186 180 179 186 172
180 199 209 211 206 196 192 180 205 199 225 222 233 234 234 238 245 246 231 244 252 256 211 193 197 208 218 226 216 212 212 195 194 185 184 177 181 177 193 191 194 194 168
188 176 201 202 194 180 176 175 165 200 217 207 228 234 237 251 243 246 240 237 239 244 208 190 193 210 228 216 216 213 214 216 191 184 180 178 179 178 193 199 197 177 139
178 187 194 191 173 161 172 174 195 192 194 229 240 235 231 245 245 234 232 228 234 243 212 205 194 208 219 225 214 215 209 221 194 176 180 174 178 178 181 176 158 136 131
175 171 188 178 161 150 193 193 200 203 209 227 237 243 245 239 247 219 226 230 230 225 212 194 206 213 206 206 210 218 210 212 215 181 176 175 169 175 167 154 143 132 126
172 177 175 169 160 190 201 166 216 237 257 202 179 279 281 264 244 220 211 227 236 226 199 200 204 194 206 199 201 214 210 207 211 191 176 168 171 166 154 149 130 121 121
169 169 166 180 187 178 196 208 206 237 238 179 161 98 281 289 256 214 196 208 226 204 210 207 200 188 190 185 191 198 210 210 202 198 173 166 159 155 153 145 146 144 140
157 175 166 178 193 185 207 200 193 196 214 202 213 148 142 224 324 137 200 199 202 199 210 220 214 191 180 186 194 196 201 222 199 198 175 170 156 152 153 146 135 135 135
151 178 170 169 173 168 200 200 189 191 163 185 186 227 78 142 184 316 20 151 173 195 207 225 204 194 184 182 191 189 191 192 201 198 181 160 155 156 146 143 148 139 139
159 152 158 161 174 188 198 189 188 189 188 166 174 142 157 46 84 122 301 358 83 144 216 213 207 182 177 180 177 185 181 183 185 181 171 156 157 155 150 148 143 135 139
125 142 156 179 180 180 191 199 208 200 197 198 189 189 159 162 192 155 159 207 163 89 120 110 130 190 177 177 189 189 175 168 152 162 166 157 155 150 147 146 142 139 139
142 177 173 178 187 199 204 190 206 206 204 194 195 207 193 198 149 141 133 153 137 134 132 107 87 121 171 189 187 175 165 148 148 140 156 141 147 146 142 139 140 136 135
158 170 176 179 191 208 217 194 207 224 205 205 208 201 192 203 175 171 168 144 98 93 51 64 40 45 168 168 189 143 143 138 132 134 133 133 134 131 131 135 124 126 141
162 170 167 166 210 236 241 211 209 202 208 203 221 213 208 202 184 194 189 174 151 135 144 76 83 289 137 142 150 129 131 125 119 123 120 118 121 121 113 116 123 129 146
154 148 137 173 191 346 211 205 200 219 168 179 200 197 193 188 182 181 185 175 127 127 125 142 181 208 122 113 133 129 128 121 118 118 111 118 116 109 110 107 110 122 131
155 149 165 163 158 200 267 221 214 167 150 166 185 175 200 152 161 170 168 137 116 111 116 101 102 102 105 112 108 115 122 119 119 117 112 110 107 106 116 129 134 123 120
155 157 163 158 138 227 233 206 205 180 171 171 162 161 143 113 140 137 148 135 138 124 137 138 69 62 102 104 107 106 108 110 118 110 113 120 122 125 133 126 125 117 127
157 171 168 137 160 252 277 242 204 195 171 150 158 158 154 147 146 124 112 117 122 112 113 126 121 101 102 117 101 99 104 106 100 110 108 114 119 117 124 122 116 109 111
176 149 150 124 111 32 355 337 82 133 138 159 204 140 144 132 132 130 124 127 124 116 126 117 114 117 111 111 107 115 106 96 96 86 78 84 87 91 94 99 111 114 113
139 131 127 101 83 48 10 341 100 92 101 110 95 120 122 119 118 111 133 134 129 134 130 120 120 122 122 128 125 118 103 102 78 89 80 49 62 61 50 72 101 110 112
117 123 119 109 79 48 359 62 97 100 94 84 89 83 94 119 108 104 97 89 128 139 126 122 129 133 123 125 124 125 122 124 113 4 92 59 35 63 38 44 100 120 118
119 116 120 110 89 51 19 91 100 94 86 80 77 81 77 97 105 102 92 88 83 83 112 139 136 136 130 136 132 129 127 114 103 100 95 86 42 65 31 77 117 123 127
135 132 132 120 104 53 45 110 99 83 79 73 79 87 103 110 106 102 95 85 88 107 117 124 127 130 129 128 127 128 122 104 90 76 85 97 37 64 32 25 110 144 149
129 138 139 138 121 77 78 128 101 81 83 80 90 79 103 106 100 103 96 93 89 82 73 85 94 99 101 106 122 123 117 122 111 111 58 111 167 100 52 239 235 193 175
145 133 128 148 127 115 97 139 106 105 98 90 91 82 85 110 98 94 109 101 101 106 105 103 98 93 105 108 100 114 140 137 121 87 207 101 131 143 207 230 222 182 176